Kenai, AK

11:38 PM AKDT on September 23, 2017 (GMT -0800)
Kenai Municipal

Weather History for PAEN - December, 2013

Change the Weather History Date:

Thursday, December 5, 2013

  Actual Average Record
Temperature  
Mean Temperature 27 °F -  
Max Temperature 30 °F 23 °F 39 °F (1969)
Min Temperature 24 °F 8 °F -27 °F (1975)
Degree Days  
Heating Degree Days 38    
Moisture  
Dew Point 27 °F    
Average Humidity 94    
Maximum Humidity 100    
Minimum Humidity 80    
Precipitation  
Precipitation 0.00 in - - ()
Sea Level Pressure  
Sea Level Pressure 30.49 in    
Wind  
Wind Speed 6 mph (NNE)    
Max Wind Speed 12 mph    
Max Gust Speed -    
Visibility 9 miles    
Events Rain    
Averages and records for this station are not official NWS values.
T = Trace of Precipitation, MM = Missing Value Source: NWS Daily Summary

Daily Weather History Graph

Daily Weather History Graph

Search for Another Location

Airport or City:

Trip Planner

Search our weather history database for the weather conditions in past years. The results will help you decide how hot, cold, wet, or windy it might be!

Date:

Astronomy

Dec. 05, 2013 Rise Set
Actual Time 9:53 AM AKST 3:57 PM AKST
Civil Twilight 8:56 AM AKST 4:55 PM AKST
Nautical Twilight 7:59 AM AKST 5:51 PM AKST
Astronomical Twilight 7:07 AM AKST 6:43 PM AKST
Moon 11:52 AM AKST (12/5) 8:05 PM AKST (12/5)
Length of Visible Light 7h 58m
Length of Day
6h 04m
Waxing Crescent, 12% of the Moon is Illuminated
Dec 5
Waxing Crescent
Dec 9
First Quarter
Dec 17
Full
Dec 25
Last Quarter
Jan 1
New

Hourly Weather History & Observations

Time (AKST) Temp. Windchill Dew Point Humidity Pressure Visibility Wind Dir Wind Speed Gust Speed Precip Events Conditions
12:53 AM 24.1 °F 17.0 °F 21.0 °F 88% 30.45 in 10.0 mi NE 5.8 mph - 0.00 in   Overcast
1:53 AM 25.0 °F 18.1 °F 21.9 °F 88% 30.45 in 10.0 mi NE 5.8 mph - N/A   Overcast
3:53 AM 25.0 °F 17.1 °F 23.0 °F 92% 30.44 in 10.0 mi NE 6.9 mph - 0.00 in   Overcast
4:53 AM 25.0 °F 17.1 °F 21.9 °F 88% 30.44 in 10.0 mi NNE 6.9 mph - 0.00 in   Overcast
5:53 AM 26.1 °F 19.4 °F 21.0 °F 81% 30.44 in 10.0 mi NNE 5.8 mph - N/A   Overcast
6:53 AM 26.1 °F 19.4 °F 21.9 °F 84% 30.43 in 10.0 mi NNE 5.8 mph - 0.00 in   Overcast
6:55 AM 26.6 °F 20.0 °F 21.2 °F 80% 30.42 in 10.0 mi NNE 5.8 mph - N/A   Overcast
7:53 AM 27.0 °F - 21.9 °F 81% 30.45 in 10.0 mi Calm Calm - 0.00 in   Overcast
8:26 AM 26.6 °F 21.2 °F 23.0 °F 86% 30.43 in 10.0 mi NNE 4.6 mph - 0.00 in   Overcast
8:53 AM 27.0 °F 21.6 °F 23.0 °F 85% 30.45 in 10.0 mi NE 4.6 mph - 0.00 in   Overcast
9:07 AM 26.6 °F 22.6 °F 24.8 °F 93% 30.44 in 10.0 mi NE 3.5 mph - 0.00 in   Overcast
9:53 AM 27.0 °F - 24.1 °F 89% 30.48 in 10.0 mi Calm Calm - 0.00 in   Overcast
10:53 AM 27.0 °F 23.0 °F 25.0 °F 92% 30.48 in 10.0 mi NE 3.5 mph - N/A   Overcast
11:53 AM 28.0 °F 21.7 °F 25.0 °F 88% 30.48 in 10.0 mi NNE 5.8 mph - N/A   Overcast
12:53 PM 28.0 °F 20.8 °F 26.1 °F 92% 30.49 in 10.0 mi ENE 6.9 mph - N/A   Overcast
1:53 PM 28.9 °F 22.8 °F 27.0 °F 92% 30.49 in 10.0 mi NNE 5.8 mph - N/A   Overcast
2:53 PM 28.9 °F 21.9 °F 28.0 °F 96% 30.51 in 10.0 mi NNE 6.9 mph - N/A   Overcast
3:53 PM 28.9 °F 22.8 °F 28.0 °F 96% 30.51 in 5.0 mi North 5.8 mph - N/A   Overcast
4:49 PM 28.4 °F 21.2 °F 28.4 °F 100% 30.49 in 4.0 mi NNE 6.9 mph - 0.00 in Rain Light Freezing Rain
4:53 PM 28.9 °F 20.4 °F 28.9 °F 100% 30.51 in 4.0 mi NNE 9.2 mph - 0.00 in Rain Light Freezing Rain
5:21 PM 28.4 °F 20.4 °F 28.4 °F 100% 30.50 in 6.0 mi NNE 8.1 mph - 0.00 in Rain Light Freezing Rain
5:32 PM 28.4 °F 20.4 °F 28.4 °F 100% 30.50 in 9.0 mi NNE 8.1 mph - 0.00 in   Overcast
5:53 PM 28.9 °F 19.8 °F 28.0 °F 96% 30.51 in 10.0 mi NNE 10.4 mph - 0.00 in   Overcast
6:08 PM 28.4 °F 19.7 °F 28.4 °F 100% 30.49 in 10.0 mi NNE 9.2 mph - N/A   Overcast
6:27 PM 28.4 °F 18.5 °F 26.6 °F 93% 30.50 in 10.0 mi NNE 11.5 mph - N/A   Overcast
6:53 PM 28.9 °F 20.4 °F 27.0 °F 92% 30.51 in 10.0 mi North 9.2 mph - N/A   Overcast
7:53 PM 28.9 °F 20.4 °F 28.0 °F 96% 30.52 in 10.0 mi NNE 9.2 mph - N/A   Overcast
8:53 PM 30.0 °F 22.4 °F 28.9 °F 96% 30.53 in 10.0 mi NE 8.1 mph - N/A   Overcast
9:00 PM 30.2 °F 23.4 °F 28.4 °F 93% 30.52 in 10.0 mi NE 6.9 mph - N/A   Overcast
9:43 PM 30.2 °F 24.3 °F 30.2 °F 100% 30.52 in 8.0 mi NE 5.8 mph - N/A   Overcast
9:53 PM 30.0 °F 25.2 °F 30.0 °F 100% 30.53 in 7.0 mi NE 4.6 mph - N/A   Overcast
10:20 PM 30.2 °F 23.4 °F 30.2 °F 100% 30.52 in 6.0 mi NNE 6.9 mph - N/A   Overcast
10:36 PM 30.2 °F 24.3 °F 30.2 °F 100% 30.52 in 8.0 mi NNE 5.8 mph - N/A   Overcast
10:44 PM 30.2 °F 24.3 °F 30.2 °F 100% 30.52 in 8.0 mi NNE 5.8 mph - N/A   Overcast
10:53 PM 30.0 °F 23.2 °F 30.0 °F 100% 30.53 in 9.0 mi NNE 6.9 mph - N/A   Overcast
11:05 PM 30.2 °F 26.7 °F 30.2 °F 100% 30.53 in 10.0 mi North 3.5 mph - N/A   Overcast
11:48 PM 30.2 °F 23.4 °F 30.2 °F 100% 30.53 in 9.0 mi NNE 6.9 mph - N/A   Overcast
11:53 PM 30.9 °F 24.3 °F 30.9 °F 100% 30.54 in 10.0 mi NNE 6.9 mph - N/A   Overcast